Illinois River (Illinois), Valley City (05586100)

StateIllinoisLatestUnknown (51100 cfs)
RiverIllinois RiverRatingObservedEstimated
Updated2026-05-05 12:30 (49 minutes ago)Flood - The river is flooding. Obstacles can be treacherous or deadly. The river should be avoided at this stage for casual trips and definitely for the inexperienced. Trips should be attempted only with protective gear and equipment.Flood(none)(none)
Discharge51100 cfs (median: 34500 cfs)High - The river is high and potentially dangerous, especially for the young and / or inexperienced. Normal stream obstacles are sometimes difficult to navigate. Extended distances can be attempted, but canoe travel may not be advisable.High(none)(none)
Height14.24 feetGood - Conditions are ideal for a canoe or kayak. Boats typically will drag on fewer than one-quarter of riffles, if at all, and portages are unnecessary or rare. Normal float lengths can be attempted without a problem.Good(none)(none)
TrendFalling (falling over 24 hours)Low - River is low but can still be floated. Some riffles are okay but most come with significant dragging and might need a portage. Float lengths should be reduced to accommodate low flow, dragging, and portages.Low(none)(none)
USGSExternal icon USGS Site (External icon Duck Duck Go Maps)Poor - River is too low to float comfortably. Most or all riffles will drag or must be portaged and some obstacles (such as slick shelf rock) cause undue problems. Avoid the river at this stage for casual paddling trips.Poor(none)(none)

Trending Data

Plot Image

Trips for Illinois River (Illinois), Valley City (05586100)

DateStartEndDistanceConditionDischargeHeightFishingDetails

A total of 0 rows are displayed.

Condition Descriptions

Fishing Conditions

Fish Species

Notes

Classic Trip List

The classic River Trips application is still available for use. It is updated with the new system using a data retrofit. It is no longer maintained. The original River Trips application is no longer updated (as of 1 Dec 2016) but can be checked for errors or for the condition of the data before it was converted to the new system.

Gauge Data Table

ObservationHeightDischargeMaximum
Discharge
Minimum
Discharge
Mean
Discharge
P05P10P20P25P50
(Median)
P75P80P90P95
2026-05-05 12:30 14.24 51100 98600 (1973) 10400 (1971) 39600 13000 15100 19600 21800 34500 51500 57100 74000 83300
2026-05-05 12:00 14.22 51200 98600 (1973) 10400 (1971) 39600 13000 15100 19600 21800 34500 51500 57100 74000 83300
2026-05-05 11:30 14.28 51000 98600 (1973) 10400 (1971) 39600 13000 15100 19600 21800 34500 51500 57100 74000 83300
2026-05-05 11:00 14.27 51100 98600 (1973) 10400 (1971) 39600 13000 15100 19600 21800 34500 51500 57100 74000 83300
2026-05-05 10:30 14.28 51100 98600 (1973) 10400 (1971) 39600 13000 15100 19600 21800 34500 51500 57100 74000 83300
2026-05-05 10:00 14.30 50900 98600 (1973) 10400 (1971) 39600 13000 15100 19600 21800 34500 51500 57100 74000 83300
2026-05-05 09:30 14.31 51100 98600 (1973) 10400 (1971) 39600 13000 15100 19600 21800 34500 51500 57100 74000 83300
2026-05-05 09:00 14.30 51300 98600 (1973) 10400 (1971) 39600 13000 15100 19600 21800 34500 51500 57100 74000 83300
2026-05-05 08:30 14.34 51200 98600 (1973) 10400 (1971) 39600 13000 15100 19600 21800 34500 51500 57100 74000 83300
2026-05-05 08:00 14.35 51100 98600 (1973) 10400 (1971) 39600 13000 15100 19600 21800 34500 51500 57100 74000 83300
2026-05-05 07:30 14.36 51000 98600 (1973) 10400 (1971) 39600 13000 15100 19600 21800 34500 51500 57100 74000 83300
2026-05-05 07:00 14.37 51400 98600 (1973) 10400 (1971) 39600 13000 15100 19600 21800 34500 51500 57100 74000 83300
2026-05-05 06:30 14.34 51500 98600 (1973) 10400 (1971) 39600 13000 15100 19600 21800 34500 51500 57100 74000 83300
2026-05-05 06:00 14.36 51600 98600 (1973) 10400 (1971) 39600 13000 15100 19600 21800 34500 51500 57100 74000 83300
2026-05-05 05:30 14.38 51700 98600 (1973) 10400 (1971) 39600 13000 15100 19600 21800 34500 51500 57100 74000 83300
2026-05-05 05:00 14.41 51400 98600 (1973) 10400 (1971) 39600 13000 15100 19600 21800 34500 51500 57100 74000 83300
2026-05-05 04:30 14.40 51500 98600 (1973) 10400 (1971) 39600 13000 15100 19600 21800 34500 51500 57100 74000 83300
2026-05-05 04:00 14.42 51600 98600 (1973) 10400 (1971) 39600 13000 15100 19600 21800 34500 51500 57100 74000 83300
2026-05-05 03:30 14.41 51700 98600 (1973) 10400 (1971) 39600 13000 15100 19600 21800 34500 51500 57100 74000 83300
2026-05-05 03:00 14.45 51300 98600 (1973) 10400 (1971) 39600 13000 15100 19600 21800 34500 51500 57100 74000 83300
2026-05-05 02:30 14.44 51500 98600 (1973) 10400 (1971) 39600 13000 15100 19600 21800 34500 51500 57100 74000 83300
2026-05-05 02:00 14.45 51600 98600 (1973) 10400 (1971) 39600 13000 15100 19600 21800 34500 51500 57100 74000 83300
2026-05-05 01:30 14.48 51300 98600 (1973) 10400 (1971) 39600 13000 15100 19600 21800 34500 51500 57100 74000 83300
2026-05-05 01:00 14.48 51700 98600 (1973) 10400 (1971) 39600 13000 15100 19600 21800 34500 51500 57100 74000 83300
2026-05-05 00:30 14.48 51700 98600 (1973) 10400 (1971) 39600 13000 15100 19600 21800 34500 51500 57100 74000 83300
2026-05-05 00:00 14.50 51400 98600 (1973) 10400 (1971) 39600 13000 15100 19600 21800 34500 51500 57100 74000 83300
2026-05-04 23:30 14.53 98600 (1973) 10400 (1971) 39600 13000 15100 19600 21800 34500 51500 57100 74000 83300
2026-05-04 23:00 14.48 98600 (1973) 10400 (1971) 39600 13000 15100 19600 21800 34500 51500 57100 74000 83300
2026-05-04 22:30 14.52 51500 100000 (1973) 10300 (1971) 39100 13500 14500 18900 20100 34300 52300 57500 72600 81200
2026-05-04 22:00 14.51 51700 100000 (1973) 10300 (1971) 39100 13500 14500 18900 20100 34300 52300 57500 72600 81200
2026-05-04 21:30 14.53 51700 100000 (1973) 10300 (1971) 39100 13500 14500 18900 20100 34300 52300 57500 72600 81200
2026-05-04 21:00 14.55 51600 100000 (1973) 10300 (1971) 39100 13500 14500 18900 20100 34300 52300 57500 72600 81200
2026-05-04 20:30 14.55 51800 100000 (1973) 10300 (1971) 39100 13500 14500 18900 20100 34300 52300 57500 72600 81200
2026-05-04 20:00 14.56 51700 100000 (1973) 10300 (1971) 39100 13500 14500 18900 20100 34300 52300 57500 72600 81200
2026-05-04 19:30 14.55 51900 100000 (1973) 10300 (1971) 39100 13500 14500 18900 20100 34300 52300 57500 72600 81200
2026-05-04 19:00 14.56 51800 100000 (1973) 10300 (1971) 39100 13500 14500 18900 20100 34300 52300 57500 72600 81200
2026-05-04 18:30 14.59 51700 100000 (1973) 10300 (1971) 39100 13500 14500 18900 20100 34300 52300 57500 72600 81200
2026-05-04 18:00 14.61 51600 100000 (1973) 10300 (1971) 39100 13500 14500 18900 20100 34300 52300 57500 72600 81200
2026-05-04 17:30 14.60 52100 100000 (1973) 10300 (1971) 39100 13500 14500 18900 20100 34300 52300 57500 72600 81200
2026-05-04 17:00 14.61 52000 100000 (1973) 10300 (1971) 39100 13500 14500 18900 20100 34300 52300 57500 72600 81200
2026-05-04 16:30 14.61 51900 100000 (1973) 10300 (1971) 39100 13500 14500 18900 20100 34300 52300 57500 72600 81200
2026-05-04 16:00 14.61 52200 100000 (1973) 10300 (1971) 39100 13500 14500 18900 20100 34300 52300 57500 72600 81200
2026-05-04 15:30 14.64 51900 100000 (1973) 10300 (1971) 39100 13500 14500 18900 20100 34300 52300 57500 72600 81200
2026-05-04 15:00 14.65 52100 100000 (1973) 10300 (1971) 39100 13500 14500 18900 20100 34300 52300 57500 72600 81200
2026-05-04 14:30 14.64 52000 100000 (1973) 10300 (1971) 39100 13500 14500 18900 20100 34300 52300 57500 72600 81200
2026-05-04 14:00 14.64 52300 100000 (1973) 10300 (1971) 39100 13500 14500 18900 20100 34300 52300 57500 72600 81200
2026-05-04 13:30 14.65 52200 100000 (1973) 10300 (1971) 39100 13500 14500 18900 20100 34300 52300 57500 72600 81200
2026-05-04 13:00 14.69 51800 100000 (1973) 10300 (1971) 39100 13500 14500 18900 20100 34300 52300 57500 72600 81200
2026-05-04 12:30 14.71 51900 100000 (1973) 10300 (1971) 39100 13500 14500 18900 20100 34300 52300 57500 72600 81200
2026-05-04 12:00 14.73 51800 100000 (1973) 10300 (1971) 39100 13500 14500 18900 20100 34300 52300 57500 72600 81200
2026-05-04 11:30 14.73 51700 100000 (1973) 10300 (1971) 39100 13500 14500 18900 20100 34300 52300 57500 72600 81200
2026-05-04 11:00 14.75 51800 100000 (1973) 10300 (1971) 39100 13500 14500 18900 20100 34300 52300 57500 72600 81200
2026-05-04 10:30 14.76 51700 100000 (1973) 10300 (1971) 39100 13500 14500 18900 20100 34300 52300 57500 72600 81200
2026-05-04 10:00 14.75 51900 100000 (1973) 10300 (1971) 39100 13500 14500 18900 20100 34300 52300 57500 72600 81200
2026-05-04 09:30 14.77 51900 100000 (1973) 10300 (1971) 39100 13500 14500 18900 20100 34300 52300 57500 72600 81200
2026-05-04 09:00 14.77 52200 100000 (1973) 10300 (1971) 39100 13500 14500 18900 20100 34300 52300 57500 72600 81200
2026-05-04 08:30 14.78 51900 100000 (1973) 10300 (1971) 39100 13500 14500 18900 20100 34300 52300 57500 72600 81200
2026-05-04 08:00 14.77 52500 100000 (1973) 10300 (1971) 39100 13500 14500 18900 20100 34300 52300 57500 72600 81200
2026-05-04 07:30 14.75 52500 100000 (1973) 10300 (1971) 39100 13500 14500 18900 20100 34300 52300 57500 72600 81200
2026-05-04 07:00 14.77 52200 100000 (1973) 10300 (1971) 39100 13500 14500 18900 20100 34300 52300 57500 72600 81200
2026-05-04 06:30 14.79 52100 100000 (1973) 10300 (1971) 39100 13500 14500 18900 20100 34300 52300 57500 72600 81200
2026-05-04 06:00 14.80 52100 100000 (1973) 10300 (1971) 39100 13500 14500 18900 20100 34300 52300 57500 72600 81200
2026-05-04 05:30 14.79 52300 100000 (1973) 10300 (1971) 39100 13500 14500 18900 20100 34300 52300 57500 72600 81200
2026-05-04 05:00 14.83 51800 100000 (1973) 10300 (1971) 39100 13500 14500 18900 20100 34300 52300 57500 72600 81200
2026-05-04 04:30 14.82 52100 100000 (1973) 10300 (1971) 39100 13500 14500 18900 20100 34300 52300 57500 72600 81200
2026-05-04 04:00 14.82 52200 100000 (1973) 10300 (1971) 39100 13500 14500 18900 20100 34300 52300 57500 72600 81200
2026-05-04 03:30 14.83 52300 100000 (1973) 10300 (1971) 39100 13500 14500 18900 20100 34300 52300 57500 72600 81200
2026-05-04 03:00 14.86 52000 100000 (1973) 10300 (1971) 39100 13500 14500 18900 20100 34300 52300 57500 72600 81200
2026-05-04 02:30 14.86 52000 100000 (1973) 10300 (1971) 39100 13500 14500 18900 20100 34300 52300 57500 72600 81200
2026-05-04 02:00 14.87 52200 100000 (1973) 10300 (1971) 39100 13500 14500 18900 20100 34300 52300 57500 72600 81200
2026-05-04 01:30 14.87 52200 100000 (1973) 10300 (1971) 39100 13500 14500 18900 20100 34300 52300 57500 72600 81200
2026-05-04 01:00 14.89 52100 100000 (1973) 10300 (1971) 39100 13500 14500 18900 20100 34300 52300 57500 72600 81200
2026-05-04 00:30 14.90 52100 100000 (1973) 10300 (1971) 39100 13500 14500 18900 20100 34300 52300 57500 72600 81200
2026-05-04 00:00 14.89 52400 100000 (1973) 10300 (1971) 39100 13500 14500 18900 20100 34300 52300 57500 72600 81200
2026-05-03 23:30 14.90 52100 100000 (1973) 10300 (1971) 39100 13500 14500 18900 20100 34300 52300 57500 72600 81200
2026-05-03 23:00 14.91 52300 100000 (1973) 10300 (1971) 39100 13500 14500 18900 20100 34300 52300 57500 72600 81200
2026-05-03 22:30 14.93 52100 101000 (1973) 10200 (1971) 39100 13700 14700 18800 20400 35100 52900 57500 71400 79700
2026-05-03 22:00 14.92 52400 101000 (1973) 10200 (1971) 39100 13700 14700 18800 20400 35100 52900 57500 71400 79700
2026-05-03 21:30 14.94 52200 101000 (1973) 10200 (1971) 39100 13700 14700 18800 20400 35100 52900 57500 71400 79700
2026-05-03 21:00 14.95 52200 101000 (1973) 10200 (1971) 39100 13700 14700 18800 20400 35100 52900 57500 71400 79700
2026-05-03 20:30 14.97 52100 101000 (1973) 10200 (1971) 39100 13700 14700 18800 20400 35100 52900 57500 71400 79700
2026-05-03 20:00 14.97 52300 101000 (1973) 10200 (1971) 39100 13700 14700 18800 20400 35100 52900 57500 71400 79700
2026-05-03 19:30 14.97 52300 101000 (1973) 10200 (1971) 39100 13700 14700 18800 20400 35100 52900 57500 71400 79700
2026-05-03 19:00 14.99 52200 101000 (1973) 10200 (1971) 39100 13700 14700 18800 20400 35100 52900 57500 71400 79700
2026-05-03 18:30 14.98 52300 101000 (1973) 10200 (1971) 39100 13700 14700 18800 20400 35100 52900 57500 71400 79700
2026-05-03 18:00 15.00 52300 101000 (1973) 10200 (1971) 39100 13700 14700 18800 20400 35100 52900 57500 71400 79700
2026-05-03 17:30 14.98 52500 101000 (1973) 10200 (1971) 39100 13700 14700 18800 20400 35100 52900 57500 71400 79700
2026-05-03 17:00 15.01 52200 101000 (1973) 10200 (1971) 39100 13700 14700 18800 20400 35100 52900 57500 71400 79700
2026-05-03 16:30 15.00 52400 101000 (1973) 10200 (1971) 39100 13700 14700 18800 20400 35100 52900 57500 71400 79700
2026-05-03 16:00 15.01 52600 101000 (1973) 10200 (1971) 39100 13700 14700 18800 20400 35100 52900 57500 71400 79700
2026-05-03 15:30 15.03 51000 101000 (1973) 10200 (1971) 39100 13700 14700 18800 20400 35100 52900 57500 71400 79700
2026-05-03 15:00 15.03 52400 101000 (1973) 10200 (1971) 39100 13700 14700 18800 20400 35100 52900 57500 71400 79700
2026-05-03 14:30 15.03 52200 101000 (1973) 10200 (1971) 39100 13700 14700 18800 20400 35100 52900 57500 71400 79700
2026-05-03 14:00 15.04 52100 101000 (1973) 10200 (1971) 39100 13700 14700 18800 20400 35100 52900 57500 71400 79700
2026-05-03 13:30 15.06 52100 101000 (1973) 10200 (1971) 39100 13700 14700 18800 20400 35100 52900 57500 71400 79700
2026-05-03 13:00 15.01 52500 101000 (1973) 10200 (1971) 39100 13700 14700 18800 20400 35100 52900 57500 71400 79700
2026-05-03 12:30 15.03 51800 101000 (1973) 10200 (1971) 39100 13700 14700 18800 20400 35100 52900 57500 71400 79700
2026-05-03 12:00 15.06 51900 101000 (1973) 10200 (1971) 39100 13700 14700 18800 20400 35100 52900 57500 71400 79700
2026-05-03 11:30 15.06 52100 101000 (1973) 10200 (1971) 39100 13700 14700 18800 20400 35100 52900 57500 71400 79700
2026-05-03 11:00 15.08 52000 101000 (1973) 10200 (1971) 39100 13700 14700 18800 20400 35100 52900 57500 71400 79700
2026-05-03 10:30 15.08 52200 101000 (1973) 10200 (1971) 39100 13700 14700 18800 20400 35100 52900 57500 71400 79700
2026-05-03 10:00 15.10 52100 101000 (1973) 10200 (1971) 39100 13700 14700 18800 20400 35100 52900 57500 71400 79700
2026-05-03 09:30 15.10 52200 101000 (1973) 10200 (1971) 39100 13700 14700 18800 20400 35100 52900 57500 71400 79700
2026-05-03 09:00 15.11 52000 101000 (1973) 10200 (1971) 39100 13700 14700 18800 20400 35100 52900 57500 71400 79700
2026-05-03 08:30 15.11 52100 101000 (1973) 10200 (1971) 39100 13700 14700 18800 20400 35100 52900 57500 71400 79700
2026-05-03 08:00 15.12 51900 101000 (1973) 10200 (1971) 39100 13700 14700 18800 20400 35100 52900 57500 71400 79700
2026-05-03 07:30 15.13 51900 101000 (1973) 10200 (1971) 39100 13700 14700 18800 20400 35100 52900 57500 71400 79700
2026-05-03 07:00 15.13 52200 101000 (1973) 10200 (1971) 39100 13700 14700 18800 20400 35100 52900 57500 71400 79700
2026-05-03 06:30 15.15 51800 101000 (1973) 10200 (1971) 39100 13700 14700 18800 20400 35100 52900 57500 71400 79700
2026-05-03 06:00 15.14 51900 101000 (1973) 10200 (1971) 39100 13700 14700 18800 20400 35100 52900 57500 71400 79700
2026-05-03 05:30 15.15 52000 101000 (1973) 10200 (1971) 39100 13700 14700 18800 20400 35100 52900 57500 71400 79700
2026-05-03 05:00 15.14 52300 101000 (1973) 10200 (1971) 39100 13700 14700 18800 20400 35100 52900 57500 71400 79700
2026-05-03 04:30 15.14 52300 101000 (1973) 10200 (1971) 39100 13700 14700 18800 20400 35100 52900 57500 71400 79700
2026-05-03 04:00 15.16 52000 101000 (1973) 10200 (1971) 39100 13700 14700 18800 20400 35100 52900 57500 71400 79700
2026-05-03 03:30 15.16 52200 101000 (1973) 10200 (1971) 39100 13700 14700 18800 20400 35100 52900 57500 71400 79700
2026-05-03 03:00 15.19 51800 101000 (1973) 10200 (1971) 39100 13700 14700 18800 20400 35100 52900 57500 71400 79700
2026-05-03 02:30 15.18 52000 101000 (1973) 10200 (1971) 39100 13700 14700 18800 20400 35100 52900 57500 71400 79700
2026-05-03 02:00 15.19 52000 101000 (1973) 10200 (1971) 39100 13700 14700 18800 20400 35100 52900 57500 71400 79700
2026-05-03 01:30 15.19 52200 101000 (1973) 10200 (1971) 39100 13700 14700 18800 20400 35100 52900 57500 71400 79700
2026-05-03 01:00 15.18 52300 101000 (1973) 10200 (1971) 39100 13700 14700 18800 20400 35100 52900 57500 71400 79700
2026-05-03 00:30 15.20 52000 101000 (1973) 10200 (1971) 39100 13700 14700 18800 20400 35100 52900 57500 71400 79700
2026-05-03 00:00 15.21 52100 101000 (1973) 10200 (1971) 39100 13700 14700 18800 20400 35100 52900 57500 71400 79700
2026-05-02 23:30 15.21 52100 101000 (1973) 10200 (1971) 39100 13700 14700 18800 20400 35100 52900 57500 71400 79700
2026-05-02 23:00 15.21 52100 101000 (1973) 10200 (1971) 39100 13700 14700 18800 20400 35100 52900 57500 71400 79700
2026-05-02 22:30 15.21 51900 101000 (2013) 10000 (1971) 38800 12600 15000 19600 21900 34200 50600 55100 68600 78800
2026-05-02 22:00 15.23 52000 101000 (2013) 10000 (1971) 38800 12600 15000 19600 21900 34200 50600 55100 68600 78800
2026-05-02 21:30 15.25 51800 101000 (2013) 10000 (1971) 38800 12600 15000 19600 21900 34200 50600 55100 68600 78800
2026-05-02 21:00 15.24 51900 101000 (2013) 10000 (1971) 38800 12600 15000 19600 21900 34200 50600 55100 68600 78800
2026-05-02 20:30 15.25 52000 101000 (2013) 10000 (1971) 38800 12600 15000 19600 21900 34200 50600 55100 68600 78800
2026-05-02 20:00 15.23 52300 101000 (2013) 10000 (1971) 38800 12600 15000 19600 21900 34200 50600 55100 68600 78800
2026-05-02 19:30 15.25 52100 101000 (2013) 10000 (1971) 38800 12600 15000 19600 21900 34200 50600 55100 68600 78800
2026-05-02 19:00 15.23 52300 101000 (2013) 10000 (1971) 38800 12600 15000 19600 21900 34200 50600 55100 68600 78800
2026-05-02 18:30 15.25 52100 101000 (2013) 10000 (1971) 38800 12600 15000 19600 21900 34200 50600 55100 68600 78800
2026-05-02 18:00 15.27 52200 101000 (2013) 10000 (1971) 38800 12600 15000 19600 21900 34200 50600 55100 68600 78800
2026-05-02 17:30 15.25 52400 101000 (2013) 10000 (1971) 38800 12600 15000 19600 21900 34200 50600 55100 68600 78800
2026-05-02 17:00 15.28 51800 101000 (2013) 10000 (1971) 38800 12600 15000 19600 21900 34200 50600 55100 68600 78800
2026-05-02 16:30 15.27 52400 101000 (2013) 10000 (1971) 38800 12600 15000 19600 21900 34200 50600 55100 68600 78800
2026-05-02 16:00 15.27 52100 101000 (2013) 10000 (1971) 38800 12600 15000 19600 21900 34200 50600 55100 68600 78800
2026-05-02 15:30 15.31 51600 101000 (2013) 10000 (1971) 38800 12600 15000 19600 21900 34200 50600 55100 68600 78800
2026-05-02 15:00 15.30 52100 101000 (2013) 10000 (1971) 38800 12600 15000 19600 21900 34200 50600 55100 68600 78800
2026-05-02 14:30 15.32 51700 101000 (2013) 10000 (1971) 38800 12600 15000 19600 21900 34200 50600 55100 68600 78800
2026-05-02 14:00 15.30 51900 101000 (2013) 10000 (1971) 38800 12600 15000 19600 21900 34200 50600 55100 68600 78800
2026-05-02 13:30 15.30 51900 101000 (2013) 10000 (1971) 38800 12600 15000 19600 21900 34200 50600 55100 68600 78800
2026-05-02 13:00 15.32 51800 101000 (2013) 10000 (1971) 38800 12600 15000 19600 21900 34200 50600 55100 68600 78800
2026-05-02 12:30 15.32 51800 101000 (2013) 10000 (1971) 38800 12600 15000 19600 21900 34200 50600 55100 68600 78800
2026-05-02 12:00 15.32 51800 101000 (2013) 10000 (1971) 38800 12600 15000 19600 21900 34200 50600 55100 68600 78800
2026-05-02 11:30 15.32 52000 101000 (2013) 10000 (1971) 38800 12600 15000 19600 21900 34200 50600 55100 68600 78800
2026-05-02 11:00 15.32 51700 101000 (2013) 10000 (1971) 38800 12600 15000 19600 21900 34200 50600 55100 68600 78800
2026-05-02 10:30 15.33 51700 101000 (2013) 10000 (1971) 38800 12600 15000 19600 21900 34200 50600 55100 68600 78800
2026-05-02 10:00 15.32 52000 101000 (2013) 10000 (1971) 38800 12600 15000 19600 21900 34200 50600 55100 68600 78800
2026-05-02 09:30 15.32 51800 101000 (2013) 10000 (1971) 38800 12600 15000 19600 21900 34200 50600 55100 68600 78800
2026-05-02 09:00 15.32 52000 101000 (2013) 10000 (1971) 38800 12600 15000 19600 21900 34200 50600 55100 68600 78800
2026-05-02 08:30 15.34 51800 101000 (2013) 10000 (1971) 38800 12600 15000 19600 21900 34200 50600 55100 68600 78800
2026-05-02 08:00 15.33 51700 101000 (2013) 10000 (1971) 38800 12600 15000 19600 21900 34200 50600 55100 68600 78800
2026-05-02 07:30 15.34 51800 101000 (2013) 10000 (1971) 38800 12600 15000 19600 21900 34200 50600 55100 68600 78800
2026-05-02 07:00 15.37 51100 101000 (2013) 10000 (1971) 38800 12600 15000 19600 21900 34200 50600 55100 68600 78800
2026-05-02 06:30 15.35 48700 101000 (2013) 10000 (1971) 38800 12600 15000 19600 21900 34200 50600 55100 68600 78800
2026-05-02 06:00 15.35 52000 101000 (2013) 10000 (1971) 38800 12600 15000 19600 21900 34200 50600 55100 68600 78800
2026-05-02 05:30 15.34 51500 101000 (2013) 10000 (1971) 38800 12600 15000 19600 21900 34200 50600 55100 68600 78800
2026-05-02 05:00 15.34 51600 101000 (2013) 10000 (1971) 38800 12600 15000 19600 21900 34200 50600 55100 68600 78800
2026-05-02 04:30 15.36 51400 101000 (2013) 10000 (1971) 38800 12600 15000 19600 21900 34200 50600 55100 68600 78800
2026-05-02 04:00 15.37 51400 101000 (2013) 10000 (1971) 38800 12600 15000 19600 21900 34200 50600 55100 68600 78800
2026-05-02 03:30 15.38 51200 101000 (2013) 10000 (1971) 38800 12600 15000 19600 21900 34200 50600 55100 68600 78800
2026-05-02 03:00 15.38 51000 101000 (2013) 10000 (1971) 38800 12600 15000 19600 21900 34200 50600 55100 68600 78800
2026-05-02 02:30 15.36 51400 101000 (2013) 10000 (1971) 38800 12600 15000 19600 21900 34200 50600 55100 68600 78800
2026-05-02 02:00 15.36 51200 101000 (2013) 10000 (1971) 38800 12600 15000 19600 21900 34200 50600 55100 68600 78800
2026-05-02 01:30 15.36 51400 101000 (2013) 10000 (1971) 38800 12600 15000 19600 21900 34200 50600 55100 68600 78800
2026-05-02 01:00 15.37 51300 101000 (2013) 10000 (1971) 38800 12600 15000 19600 21900 34200 50600 55100 68600 78800
2026-05-02 00:30 15.37 51100 101000 (2013) 10000 (1971) 38800 12600 15000 19600 21900 34200 50600 55100 68600 78800
2026-05-02 00:00 15.34 51300 101000 (2013) 10000 (1971) 38800 12600 15000 19600 21900 34200 50600 55100 68600 78800
2026-05-01 23:30 15.38 51000 101000 (2013) 10000 (1971) 38800 12600 15000 19600 21900 34200 50600 55100 68600 78800
2026-05-01 23:00 15.36 51200 101000 (2013) 10000 (1971) 38800 12600 15000 19600 21900 34200 50600 55100 68600 78800

A total of 172 rows are displayed for years 1939 through 2024.